This demonstration page uses our WeatherBlox Daily Observations layout. Learn more.

Left ArrowRight Arrow

32.84923, -109.75925

Hourly Observations for April 13, 2021

Temp ( °F °C ) Dew Point ( °F °C ) Humidity (%) Winds ( mph kmh ) Pressure ( in mb ) Visibility ( mi km ) Precip ( " mm )
12:51 am 00:51 Clear 66 18.9 24 -4.4 20 20 Calm 29.68 1005 10 16.0934 0 0
1:51 am 01:51 Clear 66 18.9 25 -3.9 21 21 NW 10 17 29.67 1005 10 16.0934 0 0
2:51 am 02:51 Clear 58 14.4 24 -4.4 27 27 S 3 6 29.7 1006 10 16.0934 0 0
3:51 am 03:51 Clear 58 14.4 24 -4.4 27 27 E 7 11 29.69 1005 10 16.0934 0 0
4:51 am 04:51 Clear 54 12.2 22 -5.6 29 29 E 6 9 29.7 1006 10 16.0934 0 0
5:51 am 05:51 Sunny 56 13.3 23 -5 28 28 E 8 13 29.71 1006 10 16.0934 0 0
6:51 am 06:51 Sunny 65 18.3 26 -3.3 23 23 E 7 11 29.73 1007 10 16.0934 0 0
7:51 am 07:51 Sunny 70 21.1 32 0 25 25 ESE 9 15 29.74 1007 10 16.0934 0 0
8:51 am 08:51 Sunny 74 23.3 36 2.2 25 25 SE 9 15 29.73 1007 10 16.0934 0 0
9:51 am 09:51 Sunny 78 25.6 30 -1.1 17 17 S 18 30 29.73 1007 10 16.0934 0 0
10:51 am 10:51 Sunny 80 26.7 26 -3.3 14 14 S 21 33 29.71 1006 10 16.0934 0 0
11:51 am 11:51 Sunny 82 27.8 21 -6.1 10 10 SSW 16 26 29.68 1005 10 16.0934 0 0
12:51 pm 12:51 Sunny 83 28.3 16 -8.9 8 8 S 9 15 29.65 1004 10 16.0934 0 0
1:51 pm 13:51 Sunny 83 28.3 19 -7.2 9 9 VRB 3 6 29.63 1003 10 16.0934 0 0
2:51 pm 14:51 Sunny 87 30.6 18 -7.8 8 8 N 16 26 29.61 1003 10 16.0934 0 0
3:51 pm 15:51 Sunny 85 29.4 16 -8.9 7 7 VRB 5 7 29.59 1002 10 16.0934 0 0
4:51 pm 16:51 Sunny 86 30 14 -10 7 7 WNW 15 24 29.6 1002 10 16.0934 0 0
5:51 pm 17:51 Sunny 82 27.8 14 -10 8 8 W 17 28 29.61 1003 10 16.0934 0 0
6:51 pm 18:51 Clear 80 26.7 12 -11.1 7 7 W 15 24 29.61 1003 10 16.0934 0 0
7:51 pm 19:51 Clear 78 25.6 18 -7.8 10 10 W 14 22 29.63 1003 10 16.0934 0 0
8:51 pm 20:51 Clear 74 23.3 18 -7.8 12 12 WNW 14 22 29.65 1004 10 16.0934 0 0
9:51 pm 21:51 Clear 71 21.7 17 -8.3 13 13 NW 6 9 29.66 1005 10 16.0934 0 0
10:51 pm 22:51 Clear 68 20 21 -6.1 17 17 NNW 7 11 29.68 1005 10 16.0934 0 0
11:51 pm 23:51 Clear 66 18.9 25 -3.9 21 21 N 3 6 29.7 1006 10 16.0934 0 0

Powered by AerisWeather